FW7079 Weather Reports


Display with metric or nautical units.
time (UTC)temp
F
wind
direction
speed
MPH
gust
MPH
rain 1hr
in
rain 24hr
in
rain mn
in
humidity
%
barometer
mb
20260502223050 72 223 0.0 1.0 0.00 0.00 0.00 45 1018.9
20260502221606 72 44 0.0 2.0 0.00 0.00 0.00 45 1018.9
20260502220100 72 289 0.0 2.0 0.00 0.00 0.00 45 1019.1
20260502214551 72 142 0.0 2.0 0.00 0.00 0.00 45 1019.3
20260502213051 72 223 1.0 3.0 0.00 0.00 0.00 44 1019.4
20260502211553 73 290 0.0 0.0 0.00 0.00 0.00 47 1019.6
20260502210107 73 44 1.0 3.0 0.00 0.00 0.00 47 1019.8
20260502204551 73 0 0.0 3.0 0.00 0.00 0.00 44 1020.0
20260502203048 74 56 0.0 3.0 0.00 0.00 0.00 46 1020.3
20260502201552 75 100 1.0 3.0 0.00 0.00 0.00 45 1020.4
20260502200114 75 0.0 0.0 0.00 0.00 0.00 48 1020.6
20260502194549 74 0.0 0.0 0.00 0.00 0.00 42 1020.6
20260502193052 74 0.0 0.0 0.00 0.00 0.00 48 1020.6
20260502191558 74 0.0 0.0 0.00 0.00 0.00 45 1020.8
20260502190056 71 236 2.0 5.0 0.00 0.00 0.00 47 1021.0
20260502184550 72 153 2.0 3.0 0.00 0.00 0.00 44 1021.3
20260502183052 73 229 1.0 2.0 0.00 0.00 0.00 47 1021.4
20260502181552 71 111 0.0 4.0 0.00 0.00 0.00 50 1021.8
20260502163100 64 0 0.0 0.0 0.00 0.00 0.00 62 1022.1
20260502161552 62 72 0.0 2.0 0.00 0.00 0.00 73 1022.0
20260502151606 58 0 0.0 1.0 0.00 0.00 0.00 76 1022.1
20260502130106 46 0 0.0 0.0 0.00 0.00 0.00 92 1021.1
20260502123054 44 0 0.0 0.0 0.00 0.00 0.00 90 1021.0
20260502121549 44 0 0.0 0.0 0.00 0.00 0.00 89 1020.8
20260502114554 45 0 0.0 0.0 0.00 0.00 0.00 88 1020.7
20260502113055 46 0.0 0.0 0.00 0.00 0.00 87 1020.6
20260502111553 47 0 0.0 0.0 0.00 0.00 0.00 86 1020.8
20260502110103 49 0 0.0 0.0 0.00 0.00 0.00 85 1020.7
20260502104552 49 0 0.0 1.0 0.00 0.00 0.00 85 1020.5
20260502103104 50 0 0.0 0.0 0.00 0.00 0.00 83 1020.8
20260502101557 50 0 0.0 1.0 0.00 0.00 0.00 81 1021.5
20260502100104 49 0 0.0 0.0 0.00 0.00 0.00 84 1021.4
20260502090114 43 0 0.0 0.0 0.00 0.00 0.00 91 1019.6
20260502070106 43 0 0.0 0.0 0.00 0.00 0.00 89 1019.7
20260502064605 43 0 0.0 0.0 0.00 0.00 0.00 89 1019.5
20260502063053 44 0 0.0 0.0 0.00 0.00 0.00 89 1019.5
20260502061553 44 0 0.0 0.0 0.00 0.00 0.00 89 1019.8
20260502060053 44 0 0.0 0.0 0.00 0.00 0.00 89 1019.8
20260502054559 44 0 0.0 0.0 0.00 0.00 0.00 89 1019.6
20260502053054 45 0 0.0 0.0 0.00 0.00 0.00 88 1019.7
20260502051559 45 0 0.0 0.0 0.00 0.00 0.00 88 1019.7
20260502050055 45 0 0.0 0.0 0.00 0.00 0.00 87 1019.6
20260502044556 46 0 0.0 0.0 0.00 0.00 0.00 87 1019.6
20260502043054 46 0 0.0 0.0 0.00 0.00 0.00 87 1019.5
20260502041604 47 0 0.0 0.0 0.00 0.00 0.00 86 1019.6
20260502040054 48 0 0.0 0.0 0.00 0.00 0.00 85 1019.6
20260502034556 48 0 0.0 0.0 0.00 0.00 0.00 85 1019.5
20260502033101 49 0 0.0 0.0 0.00 0.00 0.00 84 1019.5
20260502031601 50 0 0.0 0.0 0.00 0.00 0.00 83 1019.4
20260502030057 51 0 0.0 0.0 0.00 0.00 0.00 82 1019.3
20260502024606 51 0 0.0 0.0 0.00 0.00 0.00 81 1019.2
20260502023121 52 0 0.0 0.0 0.00 0.00 0.00 80 1019.1
20260502021552 53 0 0.0 0.0 0.00 0.00 0.00 78 1018.9
20260502020055 54 0 0.0 0.0 0.00 0.00 0.00 77 1018.7
20260502014553 56 0 0.0 0.0 0.00 0.00 0.00 74 1018.5
20260502013057 58 0 0.0 0.0 0.00 0.00 0.00 71 1018.2
20260502011552 59 0 0.0 0.0 0.00 0.00 0.00 67 1018.1
20260502010052 61 0 0.0 0.0 0.00 0.00 0.00 61 1018.0
20260502004552 62 0 0.0 0.0 0.00 0.00 0.00 58 1017.8
20260502003054 64 0 0.0 0.0 0.00 0.00 0.00 57 1017.7
20260502001626 65 0 0.0 1.0 0.00 0.00 0.00 52 1017.6
20260502000120 66 0 0.0 1.0 0.00 0.00 0.00 51 1017.7
20260501234559 66 0 0.0 0.0 0.00 0.00 0.00 46 1017.6
20260501233106 66 0 0.0 2.0 0.00 0.00 0.00 44 1017.6
20260501231609 67 0 0.0 1.0 0.00 0.00 0.00 45 1017.4
20260501230100 67 0 0.0 2.0 0.00 0.00 0.00 45 1017.3
20260501224615 68 0 1.0 2.0 0.00 0.00 0.00 41 1017.3